This is the latest recevied weather packets stored in our database for station/object KE5KUL-13. If no packets are shown the sender has not sent any weather packets the latest 10 day(s).
| Time | Temp. | Humidity | Pressure | Rain* | Wind** | Luminosity | Snow |
|---|---|---|---|---|---|---|---|
| 1777926319 | 30.56° C | 19% | 1008.7 hPa | 0 mm | - | - | - |
| 1777925718 | 30.56° C | 20% | 1008.9 hPa | 0 mm | - | - | - |
| 1777925119 | 30.56° C | 21% | 1009.1 hPa | 0 mm | - | - | - |
| 1777924519 | 30° C | 21% | 1009 hPa | 0 mm | - | - | - |
| 1777923919 | 30.56° C | 20% | 1009.1 hPa | 0 mm | - | - | - |
| 1777923318 | 30.56° C | 20% | 1009.5 hPa | 0 mm | - | - | - |
| 1777922718 | 31.11° C | 20% | 1009.8 hPa | 0 mm | - | - | - |
| 1777922119 | 31.11° C | 19% | 1009.8 hPa | 0 mm | - | - | - |
| 1777921517 | 31.11° C | 19% | 1009.8 hPa | 0 mm | - | - | - |
| 1777920918 | 31.11° C | 19% | 1009.9 hPa | 0 mm | - | - | - |
| 1777920318 | 31.67° C | 19% | 1010.3 hPa | 0 mm | - | - | - |
| 1777919719 | 31.11° C | 20% | 1010.6 hPa | 0 mm | - | - | - |
| 1777919118 | 31.67° C | 20% | 1011 hPa | 0 mm | - | - | - |
| 1777918519 | 31.11° C | 20% | 1011.1 hPa | 0 mm | - | - | - |
| 1777917918 | 31.11° C | 20% | 1011.4 hPa | 0 mm | - | - | - |
| 1777917318 | 31.11° C | 21% | 1011.6 hPa | 0 mm | - | - | - |
| 1777916718 | 31.11° C | 21% | 1011.5 hPa | 0 mm | - | - | - |
| 1777916118 | 31.11° C | 20% | 1011.6 hPa | 0 mm | - | - | - |
| 1777915518 | 30.56° C | 21% | 1011.8 hPa | 0 mm | - | - | - |
| 1777914918 | 30.56° C | 21% | 1011.9 hPa | 0 mm | - | - | - |
| 1777914318 | 30.56° C | 21% | 1012.1 hPa | 0 mm | - | - | - |
| 1777913718 | 31.11° C | 21% | 1012.4 hPa | 0 mm | - | - | - |
| 1777913118 | 30.56° C | 21% | 1012.4 hPa | 0 mm | - | - | - |
| 1777912518 | 30.56° C | 21% | 1012.6 hPa | 0 mm | - | - | - |
| 1777911918 | 30.56° C | 22% | 1012.7 hPa | 0 mm | - | - | - |
* Rain latest hour (hover to see other rain measurements)
** Current wind speed in m/s (hover to see current wind gust speed)